Location: Dampvalley
(47.9094°N, 6.1967°E)
Time: 21:38:46
(UTC+00:00)

Cosmos 2221 - Pass Details

Date: 05 March 2021
Orbit: 592 x 616 km, 82.5° (Epoch: 21 April)

Event Time Altitude Azimuth Distance (km) Brightness Sun altitude
Exits shadow 03:38:53 73° 53° (NE) 645 2.6 -25.5°
Drops below altitude 10° 03:42:58 10° 12° (NNE) 1,975 5.5 -24.8°
Sets 03:45:11 0° 11° (N) 2,881 6.4 -24.5°
